EW2244 Weather Reports


Display with metric or nautical units.
time (UTC)temp
F
wind
direction
speed
MPH
gust
MPH
rain 1hr
in
rain 24hr
in
rain mn
in
humidity
%
barometer
mb
20260510230139 55 44 0.0 0.0 0.00 2.91 0.00 95 1011.6
20260510225127 55 44 0.0 1.0 0.00 2.91 0.00 95 1011.7
20260510224120 55 44 0.0 2.0 0.00 2.91 0.00 95 1011.8
20260510223128 55 44 0.0 0.0 0.00 2.91 0.00 95 1011.7
20260510222114 55 44 0.0 1.0 0.00 2.91 0.00 95 1011.8
20260510221122 55 44 0.0 1.0 0.00 2.91 0.00 95 1011.9
20260510220133 55 44 0.0 1.0 0.00 2.91 0.00 95 1011.9
20260510215119 55 44 0.0 1.0 0.00 2.91 0.74 95 1012.1
20260510214145 55 44 0.0 1.0 0.00 2.91 0.74 94 1012.1
20260510213130 55 44 0.0 1.0 0.00 2.91 0.74 94 1012.2
20260510212117 55 44 0.0 0.0 0.00 2.91 0.74 94 1012.2
20260510211123 55 44 0.0 0.0 0.00 2.91 0.74 94 1012.4
20260510210152 55 44 0.0 0.0 0.00 2.91 0.74 94 1012.3
20260510205117 55 44 0.0 1.0 0.00 2.91 0.74 94 1012.5
20260510204124 55 44 0.0 0.0 0.00 2.91 0.74 94 1012.6
20260510203131 55 44 0.0 1.0 0.00 2.91 0.74 94 1012.6
20260510202135 55 44 0.0 1.0 0.00 2.91 0.74 94 1012.6
20260510201120 55 44 0.0 1.0 0.00 2.91 0.74 94 1012.7
20260510200122 55 44 0.0 0.0 0.00 2.91 0.74 94 1012.7
20260510195130 56 44 0.0 0.0 0.00 2.91 0.74 94 1012.8
20260510194118 56 44 0.0 0.0 0.00 2.91 0.74 94 1012.8
20260510193123 56 44 0.0 0.0 0.00 2.91 0.74 93 1012.8
20260510192152 56 44 0.0 0.0 0.00 2.91 0.74 94 1012.8
20260510191121 56 44 0.0 0.0 0.00 2.91 0.74 94 1012.7
20260510190148 56 44 0.0 0.0 0.00 2.91 0.74 93 1012.7
20260510185125 56 44 0.0 2.0 0.00 2.91 0.74 93 1012.7
20260510184131 56 44 0.0 1.0 0.00 2.91 0.74 93 1012.6
20260510183123 56 44 0.0 1.0 0.00 2.91 0.74 93 1012.5
20260510182130 56 44 0.0 1.0 0.00 2.91 0.74 92 1012.5
20260510181119 56 44 0.0 1.0 0.00 2.91 0.74 91 1012.4
20260510180126 56 44 0.0 0.0 0.00 2.91 0.74 91 1012.5
20260510175119 56 44 0.0 0.0 0.00 2.91 0.74 91 1012.4
20260510174147 56 44 0.0 2.0 0.00 2.91 0.74 91 1012.4
20260510173153 56 44 0.0 0.0 0.00 2.91 0.74 92 1012.4
20260510172120 56 44 0.0 0.0 0.00 2.91 0.74 91 1012.5
20260510171125 57 44 0.0 0.0 0.00 2.91 0.74 92 1012.5
20260510170114 57 44 0.0 0.0 0.00 2.91 0.74 92 1012.5
20260510165120 57 44 0.0 0.0 0.00 2.91 0.74 92 1012.6
20260510164118 57 44 0.0 1.0 0.00 2.91 0.74 93 1012.7
20260510163120 57 44 0.0 1.0 0.00 2.91 0.74 93 1012.6
20260510162131 57 44 0.0 1.0 0.00 2.91 0.74 93 1012.7
20260510161135 57 44 0.0 1.0 0.00 2.91 0.74 91 1012.8
20260510160118 58 44 0.0 2.0 0.04 2.91 0.74 93 1012.9
20260510155125 58 44 0.0 1.0 0.04 2.91 0.74 93 1012.9
20260510154115 58 44 0.0 2.0 0.04 2.91 0.74 94 1013.0
20260510153121 58 44 0.0 1.0 0.04 2.91 0.74 94 1013.1
20260510152128 58 44 0.0 0.0 0.04 2.91 0.74 91 1013.2
20260510151115 58 44 0.0 0.0 0.04 2.91 0.74 92 1013.3
20260510150146 58 44 0.0 0.0 0.00 2.87 0.73 92 1013.3
20260510145133 58 44 0.0 1.0 0.00 2.87 0.73 93 1013.4
20260510144117 58 44 0.0 1.0 0.00 2.87 0.73 90 1013.4
20260510143123 58 44 0.0 0.0 0.00 2.87 0.73 92 1013.4
20260510142133 58 44 0.0 0.0 0.00 2.87 0.73 93 1013.5
20260510141117 58 44 0.0 0.0 0.00 2.87 0.73 94 1013.7
20260510140131 58 44 0.0 0.0 0.00 2.87 0.73 93 1013.7
20260510135121 58 44 0.0 0.0 0.00 2.87 0.73 93 1013.8
20260510134145 58 44 0.0 2.0 0.00 2.87 0.73 92 1013.9
20260510133125 57 44 0.0 2.0 0.04 2.87 0.73 93 1013.9
20260510132129 57 44 0.0 1.0 0.04 2.87 0.73 93 1014.1
20260510131126 57 44 0.0 1.0 0.04 2.87 0.73 93 1014.1
20260510130136 57 44 1.0 2.0 0.08 2.87 0.73 93 1014.1
20260510125119 57 44 0.0 4.0 0.08 2.87 0.73 93 1014.1
20260510124139 57 44 1.0 3.0 0.08 2.87 0.73 94 1014.3
20260510123148 57 44 0.0 2.0 0.08 2.83 0.72 94 1014.3
20260510122130 57 44 0.0 2.0 0.08 2.83 0.72 94 1014.4
20260510121116 57 44 1.0 3.0 0.12 2.83 0.72 93 1014.5
20260510120123 57 44 0.0 2.0 0.12 2.80 0.71 94 1014.7
20260510115115 57 44 0.0 2.0 0.16 2.80 0.71 92 1014.7
20260510114122 57 44 1.0 4.0 0.24 2.80 0.71 93 1014.7
20260510113130 57 44 1.0 4.0 0.28 2.76 0.70 93 1014.8
20260510112154 57 44 0.0 4.0 0.31 2.76 0.70 93 1014.8
20260510111124 57 44 0.0 4.0 0.31 2.72 0.69 95 1014.9
20260510110129 57 44 1.0 3.0 0.35 2.68 0.68 93 1015.0
20260510105118 57 52 1.0 3.0 0.35 2.64 0.67 93 1015.0
20260510104121 57 57 0.0 3.0 0.28 2.56 0.65 94 1015.0
20260510103130 57 57 0.0 1.0 0.24 2.48 0.63 94 1015.1
20260510102116 57 57 0.0 4.0 0.24 2.44 0.62 94 1015.2
20260510101121 57 57 1.0 5.0 0.24 2.40 0.61 94 1015.2
20260510100128 57 26 2.0 4.0 0.16 2.32 0.59 94 1015.2
20260510095121 57 26 1.0 3.0 0.16 2.28 0.58 95 1015.2
20260510094128 57 46 1.0 4.0 0.20 2.28 0.58 94 1015.2
20260510093115 57 28 0.0 3.0 0.20 2.24 0.57 94 1015.2
20260510092119 57 28 1.0 3.0 0.24 2.20 0.56 94 1015.3
20260510091131 57 327 0.0 2.0 0.28 2.17 0.55 94 1015.2
20260510090119 57 327 1.0 3.0 0.31 2.17 0.55 95 1015.3
20260510085127 57 327 1.0 3.0 0.35 2.13 0.54 94 1015.1
20260510084134 56 326 1.0 3.0 0.39 2.09 0.53 94 1015.2
20260510083146 56 296 0.0 3.0 0.35 2.05 0.52 95 1015.3
20260510082133 56 262 0.0 3.0 0.31 1.97 0.50 93 1015.3
20260510081121 56 206 2.0 4.0 0.24 1.89 0.48 94 1015.1
20260510080128 56 204 0.0 2.0 0.20 1.85 0.47 94 1015.1
20260510075119 56 204 1.0 3.0 0.08 1.73 0.44 94 1015.0
20260510074147 56 201 1.0 4.0 0.04 1.69 0.43 94 1015.0
20260510073132 56 45 0.0 9.0 0.04 1.69 0.43 94 1014.9
20260510072119 56 351 0.0 3.0 0.00 1.65 0.42 95 1014.8
20260510071130 55 211 0.0 5.0 0.04 1.65 0.42 95 1014.8
20260510070119 55 351 0.0 6.0 0.16 1.65 0.42 94 1014.8
20260510065126 55 245 0.0 3.0 0.31 1.65 0.42 94 1014.9
20260510064134 55 270 1.0 4.0 0.55 1.65 0.42 94 1014.8
20260510063124 55 48 1.0 6.0 0.79 1.65 0.42 94 1014.8
20260510062132 55 42 1.0 5.0 0.91 1.65 0.42 93 1014.8
20260510061119 55 83 1.0 3.0 0.98 1.61 0.41 93 1014.7
20260510060127 56 262 1.0 5.0 0.98 1.46 0.37 92 1014.8
20260510055118 56 274 2.0 4.0 1.14 1.34 0.34 92 1014.8
20260510054125 56 272 2.0 5.0 0.87 1.06 0.27 92 1014.8
20260510053133 56 288 2.0 4.0 0.67 0.87 0.22 91 1014.8
20260510052142 56 253 2.0 4.0 0.67 0.75 0.19 90 1014.8
20260510051154 56 244 0.0 1.0 0.63 0.63 0.16 89 1014.8
20260510050120 56 244 2.0 6.0 0.43 0.43 0.11 87 1014.7
20260510045127 57 130 1.0 6.0 0.20 0.20 0.05 84 1014.3
20260510044134 57 215 4.0 7.0 0.20 0.20 0.05 81 1014.0
20260510043124 58 211 1.0 3.0 0.20 0.20 0.05 80 1013.9
20260510042133 59 56 1.0 4.0 0.08 0.08 0.02 77 1013.9
20260510041120 60 30 1.0 4.0 0.00 0.00 0.00 72 1013.9
20260510040128 60 53 1.0 6.0 0.00 0.00 0.00 70 1013.9
20260510035120 59 35 1.0 5.0 0.00 0.00 0.00 71 1013.9
20260510034127 59 266 1.0 5.0 0.00 0.00 0.00 72 1013.9
20260510033116 59 330 3.0 10.0 0.00 0.00 0.00 73 1014.1
20260510032128 59 45 2.0 8.0 0.00 0.00 0.00 74 1014.1
20260510031136 59 26 4.0 9.0 0.00 0.00 0.00 73 1014.2
20260510030123 59 355 1.0 6.0 0.00 0.00 0.00 74 1014.5
20260510025131 60 350 1.0 4.0 0.00 0.00 0.00 72 1014.4
20260510024123 59 33 1.0 4.0 0.00 0.00 0.00 71 1014.4
20260510023132 59 234 0.0 1.0 0.00 0.00 0.00 74 1014.5
20260510022120 59 234 0.0 3.0 0.00 0.00 0.00 75 1014.6
20260510021127 59 233 1.0 4.0 0.00 0.00 0.00 75 1014.6
20260510020115 59 233 0.0 3.0 0.00 0.00 0.00 73 1014.7
20260510015123 59 230 2.0 5.0 0.00 0.00 0.00 73 1014.7
20260510014132 60 82 2.0 4.0 0.00 0.00 0.00 70 1014.9
20260510013141 60 19 1.0 3.0 0.00 0.00 0.00 67 1014.7
20260510012129 60 73 0.0 2.0 0.00 0.00 0.00 67 1014.8
20260510011115 60 49 0.0 9.0 0.00 0.00 0.00 66 1014.9
20260510010125 60 25 2.0 8.0 0.00 0.00 0.00 66 1014.9
20260510005132 60 336 1.0 9.0 0.00 0.00 0.00 66 1014.9
20260510004122 61 132 1.0 4.0 0.00 0.00 0.00 66 1014.8
20260510003150 61 299 1.0 3.0 0.00 0.00 0.00 66 1015.1
20260510002115 61 274 0.0 4.0 0.00 0.00 0.00 66 1015.4
20260510001143 61 135 0.0 2.0 0.00 0.00 0.00 65 1015.5
20260510000130 61 351 0.0 4.0 0.00 0.00 0.00 65 1015.5
20260509235122 61 159 1.0 3.0 0.00 0.00 0.00 66 1015.6
20260509234131 61 130 1.0 6.0 0.00 0.00 0.00 66 1015.6
20260509233119 61 136 1.0 6.0 0.00 0.00 0.00 66 1015.5
20260509232132 61 56 1.0 5.0 0.00 0.00 0.00 66 1015.6
20260509231120 61 62 1.0 4.0 0.00 0.00 0.00 64 1015.6